Regional Weather Roundup
Issued by NWS Charleston, WV

Home | Current Version | Previous Version | Graphics & Text | Print | Product List | Glossary On
Versions: 1 2 3 4 5 6 7 8 9 10 11 12 13 14 15 16 17 18 19 20 21 22 23 24 25 26 27 28 29 30 31 32 33 34 35 36 37 38 39 40 41 42 43 44 45 46 47 48 49 50
000
ASUS41 KRLX 012210
RWRRLX
West Virginia Regional Weather Roundup
National Weather Service Charleston WV
600 PM EDT SAT AUG 01 2015

Note: "fair" indicates few or no clouds below 12,000 feet with no
significant weather and/or obstructions to visibility.

WVZ003-012300-
Northern Panhandle of West Virginia

CITY           SKY/WX    TMP DP  RH WIND       PRES   REMARKS
WHEELING       MOSUNNY   79  53  40 W9        29.94S
$$

WVZ009-012300-
Northwest West Virginia

CITY           SKY/WX    TMP DP  RH WIND       PRES   REMARKS
PARKERSBURG    MOSUNNY   83  55  38 NW6       29.98S
$$

WVZ006-012300-
Western West Virginia

CITY           SKY/WX    TMP DP  RH WIND       PRES   REMARKS
HUNTINGTON     MOSUNNY   84  57  39 NW7       29.97R
$$

WVZ015-012300-
West Central West Virginia

CITY           SKY/WX    TMP DP  RH WIND       PRES   REMARKS
CHARLESTON     MOSUNNY   83  54  36 NW12      29.96F
$$

WVZ022-031-012300-
North Central West Virginia

CITY           SKY/WX    TMP DP  RH WIND       PRES   REMARKS
CLARKSBURG     MOSUNNY   78  54  43 W7        29.95S
MORGANTOWN     MOSUNNY   83  50  31 VRB7      29.95S
$$

WVZ025-035-042-045-012300-
Southern West Virginia

CITY           SKY/WX    TMP DP  RH WIND       PRES   REMARKS
BECKLEY        SUNNY     77  52  41 NW10      30.04S
LOGAN            N/A     81  59  47 CALM      29.97S
BLUEFIELD      SUNNY     79  52  38 NW10      30.06F
LEWISBURG      SUNNY     79  50  36 NW9       30.02F
$$

WVZ047-012300-
Northern Mountains of West Virginia

CITY           SKY/WX    TMP DP  RH WIND       PRES   REMARKS
ELKINS         SUNNY     77  51  40 W8        30.00S
$$

WVZ052-012300-
Eastern Panhandle of West Virginia

CITY           SKY/WX    TMP DP  RH WIND       PRES   REMARKS
MARTINSBURG    PTSUNNY   84  52  33 NW9       29.87S
PETERSBURG     MOSUNNY  N/A N/A N/A W12       29.93S
$$



USA.gov is the U.S. government's official web portal to all federal, state and local government web resources and services.